WMT186 LATI-LIRN

Flight info

Callsign WMT186
Flight time 0h 48m
Altitude 30000
Route DIRES DCT PAPIZ DCT TOPNO/N0428F320 DCT DOGUS/N0334F180 L995 EKTOL
Aircraft A21N/M-SDE2E3FGHIRWXY/LB1

Departure

Time 2026-05-07 15:50
Airport Tirana International Airport Mother Teresa (LATI)

Arrival

Time 2026-05-07 16:38
Airport Naples International Airport (LIRN)
Time Latitude Longitude Altitude Speed Heading
2026-05-07 15:17 41.41989 19.71516 128 ft 0 kts 264°
2026-05-07 15:39 41.41989 19.71517 98 ft 1 kts 264°
2026-05-07 15:39 41.41991 19.71539 124 ft 4 kts 260°
2026-05-07 15:39 41.42001 19.71566 125 ft 4 kts 206°
2026-05-07 15:40 41.42025 19.71571 125 ft 3 kts 174°
2026-05-07 15:40 41.42032 19.71570 124 ft 0 kts 174°
2026-05-07 15:45 41.42030 19.71570 125 ft 2 kts 174°
2026-05-07 15:45 41.41992 19.71575 123 ft 9 kts 174°
2026-05-07 15:45 41.41910 19.71587 129 ft 15 kts 174°
2026-05-07 15:45 41.41784 19.71604 130 ft 21 kts 174°
2026-05-07 15:46 41.41465 19.71648 133 ft 25 kts 174°
2026-05-07 15:46 41.41285 19.71672 134 ft 27 kts 174°
2026-05-07 15:46 41.41093 19.71696 136 ft 29 kts 174°
2026-05-07 15:47 41.40910 19.71724 137 ft 26 kts 170°
2026-05-07 15:47 41.40728 19.71764 137 ft 27 kts 174°
2026-05-07 15:47 41.40561 19.71786 137 ft 21 kts 174°
2026-05-07 15:47 41.40438 19.71802 138 ft 14 kts 170°
2026-05-07 15:48 41.40348 19.71864 138 ft 16 kts 144°
2026-05-07 15:48 41.40264 19.71947 138 ft 9 kts 142°
2026-05-07 15:48 41.40238 19.72033 138 ft 12 kts 84°
2026-05-07 15:48 41.40249 19.72151 138 ft 14 kts 83°
2026-05-07 15:49 41.40256 19.72218 138 ft 3 kts 64°
2026-05-07 15:49 41.40280 19.72218 138 ft 5 kts 350°
2026-05-07 15:49 41.40443 19.72194 137 ft 60 kts 355°
2026-05-07 15:49 41.41131 19.72104 127 ft 135 kts 354°
2026-05-07 15:50 41.42225 19.71968 356 ft 166 kts 353°
2026-05-07 15:50 41.43347 19.71822 1196 ft 160 kts 350°
2026-05-07 15:50 41.44488 19.71636 1723 ft 177 kts 353°
2026-05-07 15:50 41.45801 19.71475 2254 ft 198 kts 354°
2026-05-07 15:51 41.47238 19.71287 2804 ft 222 kts 354°
2026-05-07 15:51 41.48853 19.71069 3290 ft 250 kts 353°
2026-05-07 15:51 41.50522 19.70338 3823 ft 270 kts 324°
2026-05-07 15:51 41.51748 19.68463 4753 ft 271 kts 292°
2026-05-07 15:52 41.52100 19.66041 5783 ft 266 kts 263°
2026-05-07 15:52 41.51538 19.63724 6741 ft 265 kts 235°
2026-05-07 15:52 41.50243 19.61999 7672 ft 266 kts 216°
2026-05-07 15:52 41.48706 19.60590 8669 ft 268 kts 214°
2026-05-07 15:53 41.47161 19.59179 9633 ft 270 kts 216°
2026-05-07 15:53 41.45608 19.57722 10421 ft 279 kts 217°
2026-05-07 15:53 41.43977 19.56166 10861 ft 298 kts 217°
2026-05-07 15:53 41.42267 19.54520 11494 ft 308 kts 218°
2026-05-07 15:54 41.40520 19.52831 12301 ft 312 kts 218°
2026-05-07 15:54 41.38748 19.51123 13163 ft 315 kts 218°
2026-05-07 15:54 41.36967 19.49393 13985 ft 319 kts 218°
2026-05-07 15:54 41.35163 19.47637 14751 ft 323 kts 218°
2026-05-07 15:55 41.33336 19.45865 15493 ft 327 kts 218°
2026-05-07 15:55 41.31486 19.44078 16223 ft 331 kts 218°
2026-05-07 15:55 41.29608 19.42259 16957 ft 335 kts 218°
2026-05-07 15:55 41.27737 19.40445 17677 ft 339 kts 218°
2026-05-07 15:56 41.25823 19.38589 18384 ft 343 kts 218°
2026-05-07 15:56 41.24516 19.37326 18792 ft 345 kts 218°
2026-05-07 15:56 41.21948 19.34841 19364 ft 358 kts 218°
2026-05-07 15:56 41.19892 19.32850 19602 ft 373 kts 218°
2026-05-07 15:57 41.17781 19.30813 20227 ft 373 kts 218°
2026-05-07 15:57 41.15690 19.28800 21128 ft 368 kts 219°
2026-05-07 15:57 41.13629 19.26816 21997 ft 364 kts 219°
2026-05-07 15:57 41.11581 19.24843 22656 ft 366 kts 219°
2026-05-07 15:58 41.09514 19.22853 23227 ft 369 kts 219°
2026-05-07 15:58 41.07427 19.20844 23765 ft 372 kts 220°
2026-05-07 15:58 41.06071 19.19446 24079 ft 373 kts 224°
2026-05-07 15:58 41.04216 19.17055 24569 ft 372 kts 230°
2026-05-07 15:59 41.02465 19.14511 25066 ft 374 kts 231°
2026-05-07 15:59 41.00724 19.11950 25555 ft 376 kts 231°
2026-05-07 15:59 40.98389 19.08536 26185 ft 378 kts 231°
2026-05-07 15:59 40.97196 19.06800 26592 ft 377 kts 231°
2026-05-07 16:00 40.95440 19.04252 27263 ft 373 kts 231°
2026-05-07 16:00 40.93687 19.01709 27734 ft 375 kts 232°
2026-05-07 16:00 40.92055 18.99027 28104 ft 376 kts 239°
2026-05-07 16:00 40.90766 18.96062 28400 ft 378 kts 248°
2026-05-07 16:01 40.89871 18.92799 28690 ft 380 kts 256°
2026-05-07 16:01 40.89418 18.89334 28971 ft 385 kts 265°
2026-05-07 16:01 40.89396 18.85875 29242 ft 390 kts 271°
2026-05-07 16:01 40.89533 18.82275 29527 ft 394 kts 272°
2026-05-07 16:02 40.89677 18.78629 29811 ft 399 kts 272°
2026-05-07 16:02 40.89810 18.74946 30059 ft 404 kts 272°
2026-05-07 16:02 40.89935 18.71184 30103 ft 413 kts 272°
2026-05-07 16:03 40.90175 18.63513 30071 ft 419 kts 271°
2026-05-07 16:03 40.90410 18.55808 30050 ft 419 kts 271°
2026-05-07 16:04 40.90639 18.48143 30046 ft 419 kts 271°
2026-05-07 16:04 40.90861 18.40440 30043 ft 420 kts 271°
2026-05-07 16:05 40.91079 18.32726 30041 ft 420 kts 271°
2026-05-07 16:05 40.91292 18.24984 30040 ft 421 kts 271°
2026-05-07 16:06 40.91502 18.17246 30032 ft 421 kts 271°
2026-05-07 16:06 40.91703 18.09644 30039 ft 421 kts 271°
2026-05-07 16:07 40.91901 18.01899 30029 ft 422 kts 271°
2026-05-07 16:07 40.92095 17.94147 30031 ft 421 kts 271°
2026-05-07 16:08 40.92284 17.86401 30031 ft 421 kts 271°
2026-05-07 16:08 40.92465 17.78681 30031 ft 420 kts 271°
2026-05-07 16:09 40.92642 17.70951 30027 ft 420 kts 271°
2026-05-07 16:09 40.92815 17.63233 30025 ft 419 kts 271°
2026-05-07 16:10 40.92982 17.55547 30025 ft 418 kts 271°
2026-05-07 16:10 40.93142 17.47913 30024 ft 417 kts 271°
2026-05-07 16:11 40.93297 17.40265 30017 ft 416 kts 271°
2026-05-07 16:11 40.93447 17.32684 30019 ft 416 kts 271°
2026-05-07 16:12 40.93592 17.25047 30020 ft 415 kts 271°
2026-05-07 16:12 40.93731 17.17411 30020 ft 415 kts 271°
2026-05-07 16:13 40.93867 17.09794 30018 ft 414 kts 270°
2026-05-07 16:13 40.93996 17.02179 30020 ft 414 kts 270°
2026-05-07 16:14 40.94122 16.94550 30017 ft 413 kts 270°
2026-05-07 16:14 40.94241 16.86949 30017 ft 413 kts 270°
2026-05-07 16:15 40.94356 16.79347 29999 ft 413 kts 270°
2026-05-07 16:15 40.94466 16.71745 30000 ft 413 kts 270°
2026-05-07 16:16 40.94568 16.64182 29997 ft 414 kts 270°
2026-05-07 16:16 40.94668 16.56580 29994 ft 414 kts 270°
2026-05-07 16:17 40.94764 16.48970 29995 ft 414 kts 270°
2026-05-07 16:17 40.94853 16.41362 29992 ft 414 kts 270°
2026-05-07 16:18 40.94938 16.33733 29993 ft 415 kts 270°
2026-05-07 16:18 40.95018 16.26111 29993 ft 415 kts 270°
2026-05-07 16:19 40.95093 16.18548 29329 ft 405 kts 270°
2026-05-07 16:19 40.95127 16.14823 28275 ft 406 kts 269°
2026-05-07 16:19 40.95239 16.11089 27177 ft 409 kts 274°
2026-05-07 16:19 40.95718 16.07354 26068 ft 414 kts 280°
2026-05-07 16:20 40.96351 16.03627 24964 ft 418 kts 281°
2026-05-07 16:20 40.97005 15.99867 23836 ft 422 kts 281°
2026-05-07 16:20 40.97663 15.96048 22541 ft 426 kts 281°
2026-05-07 16:20 40.98233 15.92183 21195 ft 431 kts 278°
2026-05-07 16:21 40.98762 15.88285 20105 ft 430 kts 278°
2026-05-07 16:21 40.99293 15.84390 19188 ft 427 kts 278°
2026-05-07 16:21 40.99820 15.80553 18307 ft 423 kts 278°
2026-05-07 16:21 41.00348 15.76725 17535 ft 421 kts 278°
2026-05-07 16:22 41.00865 15.72975 17162 ft 419 kts 278°
2026-05-07 16:22 41.01384 15.69194 17013 ft 418 kts 278°
2026-05-07 16:22 41.01903 15.65402 16967 ft 418 kts 278°
2026-05-07 16:22 41.02421 15.61623 16958 ft 418 kts 278°
2026-05-07 16:23 41.02939 15.57828 16976 ft 418 kts 278°
2026-05-07 16:23 41.03455 15.54035 16974 ft 418 kts 278°
2026-05-07 16:23 41.03968 15.50251 16975 ft 418 kts 278°
2026-05-07 16:23 41.04472 15.46538 16959 ft 396 kts 277°
2026-05-07 16:24 41.04907 15.43058 16941 ft 371 kts 273°
2026-05-07 16:24 41.05021 15.39753 16936 ft 348 kts 269°
2026-05-07 16:24 41.05057 15.36622 16821 ft 331 kts 268°
2026-05-07 16:24 41.05093 15.33623 16509 ft 321 kts 268°
2026-05-07 16:25 41.05133 15.30709 15949 ft 320 kts 268°
2026-05-07 16:25 41.05179 15.27769 15476 ft 317 kts 269°
2026-05-07 16:25 41.05226 15.24876 15053 ft 312 kts 269°
2026-05-07 16:25 41.05273 15.22024 14639 ft 307 kts 269°
2026-05-07 16:26 41.05320 15.19215 14248 ft 303 kts 269°
2026-05-07 16:26 41.05366 15.16443 13862 ft 299 kts 269°
2026-05-07 16:26 41.05410 15.13711 13457 ft 294 kts 269°
2026-05-07 16:26 41.05439 15.11878 13179 ft 295 kts 269°
2026-05-07 16:27 41.05496 15.08272 12666 ft 296 kts 269°
2026-05-07 16:27 41.05519 15.06776 12471 ft 296 kts 269°
2026-05-07 16:27 41.05544 15.05243 12260 ft 296 kts 269°
2026-05-07 16:27 41.05585 15.02502 11880 ft 297 kts 269°
2026-05-07 16:28 41.05626 14.99757 11485 ft 299 kts 269°
2026-05-07 16:28 41.05667 14.96994 11100 ft 300 kts 269°
2026-05-07 16:28 41.05707 14.94261 10713 ft 301 kts 269°
2026-05-07 16:28 41.05747 14.91480 10316 ft 303 kts 269°
2026-05-07 16:29 41.05787 14.88683 9937 ft 303 kts 270°
2026-05-07 16:29 41.05826 14.85926 9635 ft 295 kts 269°
2026-05-07 16:29 41.05863 14.83258 9349 ft 285 kts 270°
2026-05-07 16:29 41.05899 14.80634 8909 ft 283 kts 269°
2026-05-07 16:30 41.05932 14.78036 8466 ft 283 kts 269°
2026-05-07 16:30 41.05966 14.75419 8095 ft 284 kts 269°
2026-05-07 16:30 41.05999 14.72805 7756 ft 283 kts 269°
2026-05-07 16:30 41.06032 14.70194 7391 ft 281 kts 269°
2026-05-07 16:31 41.06059 14.67630 7087 ft 273 kts 268°
2026-05-07 16:31 41.05715 14.65250 6820 ft 257 kts 241°
2026-05-07 16:31 41.04825 14.63324 6541 ft 246 kts 236°
2026-05-07 16:31 41.03901 14.61501 6194 ft 236 kts 232°
2026-05-07 16:32 41.02994 14.59695 5835 ft 228 kts 236°
2026-05-07 16:32 41.02176 14.57969 5491 ft 219 kts 236°
2026-05-07 16:32 41.01385 14.56286 5168 ft 212 kts 237°
2026-05-07 16:32 41.00622 14.54657 4861 ft 206 kts 237°
2026-05-07 16:33 40.99869 14.53050 4559 ft 205 kts 237°
2026-05-07 16:33 40.99117 14.51448 4255 ft 204 kts 237°
2026-05-07 16:33 40.98368 14.49852 3956 ft 203 kts 237°
2026-05-07 16:33 40.97624 14.48266 3685 ft 201 kts 238°
2026-05-07 16:34 40.96887 14.46696 3387 ft 202 kts 238°
2026-05-07 16:34 40.96165 14.45158 3136 ft 193 kts 238°
2026-05-07 16:34 40.95468 14.43673 2882 ft 182 kts 238°
2026-05-07 16:34 40.94823 14.42300 2601 ft 174 kts 238°
2026-05-07 16:35 40.94203 14.40980 2378 ft 161 kts 238°
2026-05-07 16:35 40.93647 14.39795 2116 ft 140 kts 239°
2026-05-07 16:35 40.93149 14.38734 1867 ft 135 kts 239°
2026-05-07 16:35 40.92655 14.37683 1698 ft 135 kts 239°
2026-05-07 16:36 40.92168 14.36634 1491 ft 134 kts 239°
2026-05-07 16:36 40.91675 14.35592 1294 ft 133 kts 239°
2026-05-07 16:36 40.91182 14.34553 1087 ft 134 kts 238°
2026-05-07 16:36 40.90698 14.33509 901 ft 134 kts 239°
2026-05-07 16:37 40.90204 14.32474 705 ft 133 kts 238°
2026-05-07 16:37 40.89719 14.31435 501 ft 133 kts 238°
2026-05-07 16:37 40.89226 14.30405 305 ft 133 kts 239°
2026-05-07 16:37 40.88766 14.29419 264 ft 109 kts 238°
2026-05-07 16:38 40.88479 14.28811 279 ft 50 kts 238°
2026-05-07 16:38 40.88350 14.28554 285 ft 32 kts 228°
2026-05-07 16:38 40.88187 14.28393 294 ft 19 kts 209°
2026-05-07 16:38 40.88095 14.28329 294 ft 6 kts 207°
2026-05-07 16:39 40.88062 14.28309 296 ft 4 kts 188°
2026-05-07 16:39 40.88057 14.28335 294 ft 4 kts 83°
2026-05-07 16:39 40.88058 14.28380 292 ft 6 kts 94°
2026-05-07 16:39 40.88053 14.28443 292 ft 8 kts 98°
2026-05-07 16:40 40.88035 14.28517 294 ft 9 kts 144°
2026-05-07 16:40 40.87964 14.28490 293 ft 13 kts 217°
2026-05-07 16:40 40.87941 14.28370 296 ft 16 kts 276°
2026-05-07 16:40 40.87957 14.28220 298 ft 12 kts 277°
2026-05-07 16:41 40.87963 14.28125 299 ft 10 kts 254°
2026-05-07 16:41 40.87923 14.28062 301 ft 4 kts 229°
2026-05-07 16:41 40.87909 14.28040 303 ft 1 kts 229°
2026-05-07 16:41 40.87909 14.28039 303 ft 0 kts 229°
2026-05-07 16:42 40.87907 14.28037 303 ft 0 kts 229°
2026-05-07 16:42 40.87907 14.28036 303 ft 1 kts 229°
2026-05-07 16:43 40.87881 14.28043 301 ft 6 kts 144°
2026-05-07 16:43 40.87849 14.28077 302 ft 2 kts 141°
2026-05-07 16:43 40.87842 14.28084 300 ft 0 kts 141°